SCP
0 0 0 0 0 0 0 0 0 0 0 1 2 2 1 1 1 1 1 1 1 0 0 0 0 0 0 0 0 0 0 0 0 0 0 0 0 0 0 0 0 0 0
0 0 0 0 0 0 0 0 0 0 0 1 2 2 2 2 2 1 1 1 1 1 1 0 0 0 0 0 0 0 0 0 0 0 0 0 0 0 0 0 0 0 0
0 0 0 0 0 0 0 0 0 0 0 1 2 0 1 0 1 1 1 1 1 2 2 1 0 0 0 0 0 0 0 0 0 0 0 0 0 0 0 0 0 0 0
0 -0 -0 0 0 0 0 0 0 0 0 1 2 2 2 3 1 1 1 1 0 1 3 2 1 1 1 0 0 0 0 0 0 0 0 0 0 0 0 0 0 0 0
0 0 -0 -0 0 0 0 0 0 0 0 2 2 2 0 0 0 0 0 0 0 1 2 2 1 1 1 0 0 0 0 0 0 0 0 0 0 0 0 0 0 0 0
0 0 0 -0 -0 0 0 0 0 0 0 1 1 1 1 0 0 0 0 0 1 1 2 1 1 1 1 1 0 0 0 0 0 0 0 0 0 0 0 0 0 0 0
0 0 0 0 -0 -0 0 0 0 0 0 0 0 0 0 0 0 0 0 0 1 1 1 1 1 1 1 1 0 0 0 0 0 0 0 0 0 0 0 0 0 0 0
0 0 0 0 0 -0 -0 0 0 0 0 0 0 0 0 0 0 0 0 0 1 2 1 1 2 1 1 1 0 0 0 0 0 0 0 0 0 0 0 0 0 0 0
0 0 0 0 0 0 0 0 0 0 0 0 0 0 0 0 0 0 1 1 2 2 1 2 1 1 1 0 0 0 0 0 0 0 0 0 0 0 0 0 0 0 0
0 0 -0 0 0 0 0 0 0 0 0 0 0 0 0 0 0 0 1 2 2 2 1 1 1 0 0 0 0 0 0 0 0 0 0 0 0 0 0 0 0 0 0
0 0 0 0 0 0 0 0 0 0 0 0 0 0 0 0 0 1 1 2 1 1 1 1 1 0 0 0 0 0 0 0 0 0 0 0 0 0 0 0 0 0 0
-0 0 0 0 0 0 0 0 0 0 0 0 0 0 0 1 1 2 1 1 1 1 1 1 1 1 0 0 0 0 0 0 0 0 0 0 0 0 0 0 0 0 0
0 0 0 0 0 0 0 0 2 1 0 0 0 1 1 2 2 2 1 1 1 1 1 1 1 1 0 0 0 0 0 0 0 0 0 0 0 0 0 0 0 0 0
0 0 0 0 0 0 0 1 2 1 1 2 1 2 2 2 2 2 1 1 1 1 1 1 1 0 0 0 0 0 0 0 0 0 0 0 0 0 0 0 0 0 0
-0 0 0 0 0 0 0 0 1 2 1 2 2 2 2 2 3 2 1 1 1 1 0 0 0 0 0 0 0 0 0 0 0 0 0 0 0 0 0 0 0 0 0
-0 0 0 0 0 0 0 1 1 2 2 2 3 3 2 2 2 1 1 1 1 0 0 0 0 0 0 0 0 0 0 0 0 0 0 0 0 0 0 0 0 0 0
-0 -0 0 0 0 0 0 0 0 0 1 2 2 2 2 1 1 0 1 1 0 0 0 0 0 0 0 0 0 0 0 0 0 0 0 0 0 0 0 0 0 0 0
-0 -0 0 0 0 0 0 0 0 0 0 2 1 1 1 0 0 0 0 0 0 0 0 0 0 0 0 0 0 0 0 0 0 0 0 0 0 0 0 0 0 0 0
0 -0 -0 0 0 0 0 0 0 0 0 0 1 1 1 0 0 0 0 0 0 0 0 0 0 0 0 0 0 0 0 0 0 0 0 0 0 0 0 0 0 0 0
-0 -0 0 0 0 0 0 -0 0 0 0 0 1 1 0 0 0 0 0 0 0 0 0 0 0 0 0 0 0 0 0 0 0 0 0 0 0 0 0 0 0 0 0
-0 0 0 0 0 0 0 -0 -0 0 0 0 1 0 0 0 0 0 0 0 0 0 0 0 0 0 0 0 0 0 0 0 0 0 0 0 0 0 0 0 0 0 0
0 0 0 0 0 0 0 -0 -0 0 0 -0 0 0 0 0 0 0 0 0 0 0 0 0 0 0 0 0 0 0 0 0 0 0 0 0 -0 -0 0 0 0 0 0
0 0 0 0 0 0 -0 -0 0 0 -0 0 0 0 0 0 0 0 0 0 0 0 0 0 0 0 0 0 0 0 -0 0 0 0 0 0 -0 -0 0 -0 -0 0 0
0 0 0 0 0 0 -0 -0 0 -0 0 0 0 0 0 0 0 0 0 0 0 0 0 0 0 0 0 0 0 0 0 0 0 -0 0 0 0 0 0 0 0 0 0
0 0 0 0 0 0 0 0 -0 0 0 0 0 0 0 0 0 0 0 0 0 0 0 0 0 0 0 0 0 0 0 0 -0 -0 -0 0 0 0 0 0 0 0 0
0 0 0 0 0 0 0 0 0 0 0 0 0 0 0 0 0 0 0 0 0 0 0 0 0 0 0 0 0 0 0 -0 -0 0 -0 0 0 0 0 0 0 0 0
Wind_Speed_500mb
62 58 59 41 38 42 59 58 58 69 73 79 80 69 65 52 55 70 68 63 54 50 58 59 54 51 55 57 50 46 38 37 33 38 42 37 36 36 38 38 41 46 44
58 64 60 54 44 43 46 64 68 63 86 86 79 76 72 74 85 87 74 71 57 53 60 58 60 53 54 55 55 48 42 38 38 42 37 35 34 36 38 44 49 47 45
73 76 75 69 59 52 47 52 69 75 85 92 90 92 93 92 95 89 79 70 63 59 60 65 61 54 49 45 50 49 44 39 38 41 35 15 21 24 30 33 27 29 33
66 65 69 68 66 65 53 58 54 75 81 84 109 115 110 107 96 93 79 73 56 54 64 58 48 47 39 41 46 46 41 41 43 43 45 46 38 19 11 17 15 22 28
47 56 62 70 71 74 69 57 52 64 72 70 79 96 103 106 103 90 77 57 54 59 60 59 48 42 38 42 42 44 43 42 42 43 41 46 42 41 40 38 30 24 29
42 51 59 64 74 76 76 67 61 61 75 75 71 86 96 103 103 81 68 57 58 57 54 53 45 39 40 41 42 43 37 36 39 37 40 41 38 43 39 37 31 26 22
48 54 58 66 75 76 76 75 71 59 64 81 82 82 96 97 90 80 70 63 60 56 53 51 42 39 41 39 41 37 39 33 35 35 38 39 37 37 33 30 27 23 18
62 64 64 62 68 73 81 82 80 65 60 74 80 75 84 91 82 77 70 62 58 47 45 42 37 39 38 39 40 41 38 37 36 33 30 30 31 31 30 30 27 22 20
75 79 78 67 64 63 75 82 84 68 62 66 72 67 79 84 81 71 64 64 55 45 41 37 43 40 38 37 41 37 38 36 34 29 29 30 32 32 31 29 26 23 23
79 87 84 66 56 63 57 70 82 68 68 75 79 80 83 78 69 62 65 63 57 47 39 43 46 42 35 46 38 37 33 34 31 27 30 31 30 31 30 29 26 24 24
66 76 76 55 57 57 34 36 59 68 71 80 88 84 77 68 60 64 63 56 56 45 43 48 49 43 38 46 42 39 36 33 27 29 30 26 25 24 25 25 26 24 25
68 78 78 60 56 51 36 30 23 43 70 74 92 86 76 71 65 52 51 46 52 46 46 51 50 42 42 48 41 40 35 28 28 29 26 25 24 23 24 25 23 23 25
75 86 85 51 47 46 42 32 28 16 22 56 76 77 68 61 48 45 43 48 51 48 51 50 48 46 50 42 38 35 27 27 27 27 19 18 22 23 23 23 22 25 26
69 81 65 58 35 52 58 43 31 15 20 34 44 48 49 48 45 45 48 53 53 52 55 52 48 49 44 40 36 29 26 24 29 29 22 19 20 23 24 24 24 26 26
49 55 64 70 52 58 67 51 36 16 21 37 42 44 48 48 48 50 51 52 54 58 56 56 52 47 42 38 31 22 22 25 28 28 22 21 24 25 26 25 28 31 29
33 52 60 67 64 69 63 56 31 16 18 34 48 53 55 51 49 48 48 55 58 60 58 56 50 44 36 32 32 20 20 24 23 21 22 26 28 28 27 27 29 28 32
54 72 65 64 66 67 48 56 41 9 18 29 47 50 47 49 51 52 59 53 61 63 58 54 44 39 38 36 29 26 25 24 22 22 24 25 26 27 28 29 26 31 33
59 65 72 74 76 67 54 49 42 17 16 33 43 47 52 55 55 57 59 60 60 62 57 49 43 35 36 36 31 31 31 26 24 23 22 21 23 27 26 25 24 26 28
63 66 69 67 72 60 57 38 43 35 21 8 35 55 59 66 66 56 58 67 63 58 54 45 40 41 37 36 36 33 30 28 27 26 25 21 19 18 19 21 24 27 28
67 70 65 62 62 56 46 36 41 30 42 27 32 61 67 67 62 53 61 58 56 52 50 48 43 39 32 34 30 28 28 28 25 25 23 20 20 19 24 20 24 30 32
85 74 59 57 50 49 49 33 37 32 42 39 39 64 66 56 52 63 58 55 54 51 48 47 40 34 31 28 26 26 25 21 17 18 20 20 21 18 21 23 20 24 30
70 57 57 52 40 40 38 26 30 35 26 14 72 69 66 58 64 63 59 52 50 51 48 43 38 33 28 25 25 26 25 18 16 15 17 20 21 19 23 24 23 22 22
57 51 50 45 34 32 41 26 23 13 58 55 63 64 59 59 63 67 61 56 50 47 47 43 38 34 29 29 28 26 24 21 16 11 18 19 20 27 27 27 23 20 19
49 52 47 37 26 31 39 14 27 66 55 71 64 56 57 60 64 59 56 53 51 46 46 44 38 32 33 32 29 27 28 24 17 18 19 18 26 31 32 31 24 14 8
55 50 38 29 24 21 31 19 43 45 55 68 65 60 59 63 64 59 52 47 44 41 44 40 32 31 36 30 23 20 22 20 21 24 24 27 33 38 40 35 27 17 12
43 42 35 27 20 22 24 21 19 29 62 62 65 62 60 59 59 56 53 44 40 37 32 24 14 19 21 27 23 20 18 20 22 30 31 34 36 40 41 37 31 22 20
Wind_Direction_500mb
318 325 327 323 320 288 246 241 249 251 237 224 223 229 228 241 267 251 252 261 262 261 263 267 273 278 281 281 275 265 260 261 253 256 262 263 256 250 256 260 265 278 279
321 321 321 318 311 314 282 253 243 241 236 233 226 231 239 239 239 245 253 259 258 260 262 267 270 277 276 274 268 258 254 253 245 247 257 259 262 255 258 260 269 270 275
312 311 312 311 302 300 300 288 254 246 233 229 232 236 242 242 237 241 249 251 248 255 263 269 272 268 266 265 265 257 252 249 243 242 234 228 240 256 262 267 270 265 262
306 307 307 303 297 290 292 299 271 254 238 238 240 245 245 238 240 242 246 247 253 259 265 266 265 256 257 262 257 250 247 242 240 238 240 246 253 265 259 263 271 279 271
304 303 302 302 298 293 288 292 293 260 234 244 240 244 239 238 240 242 244 248 255 259 263 262 259 250 254 255 247 242 243 234 234 236 243 245 247 249 257 273 283 284 274
310 306 301 300 295 291 286 282 283 275 247 244 239 237 239 239 240 238 241 245 254 259 265 260 251 246 250 247 244 245 232 227 230 236 247 252 248 253 250 260 273 280 272
311 309 308 307 298 292 286 277 280 277 248 246 246 242 235 237 238 235 238 249 253 260 262 255 244 241 249 244 242 219 221 222 228 241 242 242 249 247 251 258 261 267 267
314 313 313 310 302 292 287 276 274 276 251 246 241 232 228 231 233 238 245 253 257 263 263 253 241 240 242 242 207 216 220 218 226 242 241 239 243 253 254 257 258 255 257
323 317 313 309 306 293 279 271 269 265 247 242 229 220 220 230 236 245 254 255 252 254 251 242 235 235 241 219 207 214 210 218 223 232 233 237 247 250 249 246 254 254 261
317 311 309 306 315 312 294 265 259 248 239 231 230 222 226 233 245 246 250 252 245 245 237 230 228 232 231 207 209 209 206 216 221 230 236 245 248 247 243 245 247 253 256
320 318 311 294 326 332 332 289 253 241 236 231 231 230 230 239 240 245 251 249 238 236 227 226 226 224 223 200 209 205 211 216 228 234 237 238 244 238 239 235 243 248 244
335 333 322 283 310 330 340 360 308 248 240 233 232 230 237 232 238 238 238 234 227 228 226 218 222 215 201 206 206 204 211 223 232 226 226 235 232 234 233 234 249 236 236
335 326 339 311 312 341 348 347 342 278 232 226 225 222 218 223 225 227 226 220 222 229 215 211 214 198 200 200 202 203 219 230 218 211 218 223 234 236 232 239 244 234 230
335 319 330 333 345 347 336 334 324 279 224 218 209 211 212 214 222 221 214 216 224 214 204 204 193 193 199 197 198 211 214 217 212 215 224 237 244 238 239 245 245 239 229
327 325 327 350 10 346 344 336 319 277 229 219 216 217 212 215 213 214 215 217 206 201 198 183 183 192 190 195 204 192 213 224 211 215 231 247 245 242 240 237 244 243 225
323 323 334 353 353 338 341 338 328 264 241 224 216 213 203 204 208 207 194 200 193 191 184 179 180 179 184 188 185 191 199 202 217 229 244 250 242 246 242 240 248 239 227
331 323 323 323 319 328 326 334 336 282 230 227 206 200 203 209 197 195 194 188 185 179 177 172 174 180 182 181 188 208 218 231 235 245 249 244 241 241 247 255 223 229 216
325 317 312 315 322 341 345 342 334 294 198 207 220 218 212 198 189 184 188 178 175 171 169 172 177 183 190 190 202 213 218 228 232 240 237 238 241 250 246 221 224 202 203
314 309 310 312 318 329 332 322 324 287 242 226 229 220 205 183 168 166 167 170 168 170 173 177 186 186 184 200 210 215 223 230 233 230 232 240 236 221 211 201 200 194 199
313 314 315 311 313 329 329 325 310 266 234 227 219 215 187 174 161 167 164 165 169 174 182 185 184 186 199 202 209 223 227 220 218 224 230 223 213 220 207 205 204 205 199
312 314 309 306 309 330 337 320 299 259 232 230 205 197 176 164 176 165 167 171 170 173 178 180 184 193 199 209 223 214 203 202 215 219 216 215 212 214 199 200 208 207 194
302 304 300 300 314 334 340 308 307 256 204 275 183 179 165 170 166 166 165 171 174 177 180 186 191 195 205 207 195 188 187 192 210 216 214 209 204 199 188 182 178 189 205
300 305 301 307 318 333 343 288 267 220 219 249 171 160 165 166 168 165 164 174 181 183 186 191 198 199 201 190 186 184 181 193 207 209 194 196 196 184 178 175 178 187 185
300 299 303 307 321 330 339 311 237 220 252 167 153 158 164 165 168 170 176 180 182 189 192 194 196 198 194 190 190 189 190 196 211 188 183 186 176 169 168 169 171 173 187
299 300 304 299 307 347 325 267 214 257 173 160 161 163 166 173 173 179 182 187 193 200 196 196 201 201 187 183 181 186 194 195 181 187 169 162 164 163 170 173 173 176 179
295 298 294 293 304 317 301 232 237 186 170 169 170 171 174 176 178 183 184 187 190 189 190 189 193 170 169 173 172 175 175 171 181 178 169 166 163 167 176 177 178 183 178
Wind_Speed_850mb
62 58 59 41 38 42 59 58 58 69 73 79 80 69 65 52 55 70 68 63 54 50 58 59 54 51 55 57 50 46 38 37 33 38 42 37 36 36 38 38 41 46 44
58 64 60 54 44 43 46 64 68 63 86 86 79 76 72 74 85 87 74 71 57 53 60 58 60 53 54 55 55 48 42 38 38 42 37 35 34 36 38 44 49 47 45
73 76 75 69 59 52 47 52 69 75 85 92 90 92 93 92 95 89 79 70 63 59 60 65 61 54 49 45 50 49 44 39 38 41 35 15 21 24 30 33 27 29 33
66 65 69 68 66 65 53 58 54 75 81 84 109 115 110 107 96 93 79 73 56 54 64 58 48 47 39 41 46 46 41 41 43 43 45 46 38 19 11 17 15 22 28
47 56 62 70 71 74 69 57 52 64 72 70 79 96 103 106 103 90 77 57 54 59 60 59 48 42 38 42 42 44 43 42 42 43 41 46 42 41 40 38 30 24 29
42 51 59 64 74 76 76 67 61 61 75 75 71 86 96 103 103 81 68 57 58 57 54 53 45 39 40 41 42 43 37 36 39 37 40 41 38 43 39 37 31 26 22
48 54 58 66 75 76 76 75 71 59 64 81 82 82 96 97 90 80 70 63 60 56 53 51 42 39 41 39 41 37 39 33 35 35 38 39 37 37 33 30 27 23 18
62 64 64 62 68 73 81 82 80 65 60 74 80 75 84 91 82 77 70 62 58 47 45 42 37 39 38 39 40 41 38 37 36 33 30 30 31 31 30 30 27 22 20
75 79 78 67 64 63 75 82 84 68 62 66 72 67 79 84 81 71 64 64 55 45 41 37 43 40 38 37 41 37 38 36 34 29 29 30 32 32 31 29 26 23 23
79 87 84 66 56 63 57 70 82 68 68 75 79 80 83 78 69 62 65 63 57 47 39 43 46 42 35 46 38 37 33 34 31 27 30 31 30 31 30 29 26 24 24
66 76 76 55 57 57 34 36 59 68 71 80 88 84 77 68 60 64 63 56 56 45 43 48 49 43 38 46 42 39 36 33 27 29 30 26 25 24 25 25 26 24 25
68 78 78 60 56 51 36 30 23 43 70 74 92 86 76 71 65 52 51 46 52 46 46 51 50 42 42 48 41 40 35 28 28 29 26 25 24 23 24 25 23 23 25
75 86 85 51 47 46 42 32 28 16 22 56 76 77 68 61 48 45 43 48 51 48 51 50 48 46 50 42 38 35 27 27 27 27 19 18 22 23 23 23 22 25 26
69 81 65 58 35 52 58 43 31 15 20 34 44 48 49 48 45 45 48 53 53 52 55 52 48 49 44 40 36 29 26 24 29 29 22 19 20 23 24 24 24 26 26
49 55 64 70 52 58 67 51 36 16 21 37 42 44 48 48 48 50 51 52 54 58 56 56 52 47 42 38 31 22 22 25 28 28 22 21 24 25 26 25 28 31 29
33 52 60 67 64 69 63 56 31 16 18 34 48 53 55 51 49 48 48 55 58 60 58 56 50 44 36 32 32 20 20 24 23 21 22 26 28 28 27 27 29 28 32
54 72 65 64 66 67 48 56 41 9 18 29 47 50 47 49 51 52 59 53 61 63 58 54 44 39 38 36 29 26 25 24 22 22 24 25 26 27 28 29 26 31 33
59 65 72 74 76 67 54 49 42 17 16 33 43 47 52 55 55 57 59 60 60 62 57 49 43 35 36 36 31 31 31 26 24 23 22 21 23 27 26 25 24 26 28
63 66 69 67 72 60 57 38 43 35 21 8 35 55 59 66 66 56 58 67 63 58 54 45 40 41 37 36 36 33 30 28 27 26 25 21 19 18 19 21 24 27 28
67 70 65 62 62 56 46 36 41 30 42 27 32 61 67 67 62 53 61 58 56 52 50 48 43 39 32 34 30 28 28 28 25 25 23 20 20 19 24 20 24 30 32
85 74 59 57 50 49 49 33 37 32 42 39 39 64 66 56 52 63 58 55 54 51 48 47 40 34 31 28 26 26 25 21 17 18 20 20 21 18 21 23 20 24 30
70 57 57 52 40 40 38 26 30 35 26 14 72 69 66 58 64 63 59 52 50 51 48 43 38 33 28 25 25 26 25 18 16 15 17 20 21 19 23 24 23 22 22
57 51 50 45 34 32 41 26 23 13 58 55 63 64 59 59 63 67 61 56 50 47 47 43 38 34 29 29 28 26 24 21 16 11 18 19 20 27 27 27 23 20 19
49 52 47 37 26 31 39 14 27 66 55 71 64 56 57 60 64 59 56 53 51 46 46 44 38 32 33 32 29 27 28 24 17 18 19 18 26 31 32 31 24 14 8
55 50 38 29 24 21 31 19 43 45 55 68 65 60 59 63 64 59 52 47 44 41 44 40 32 31 36 30 23 20 22 20 21 24 24 27 33 38 40 35 27 17 12
43 42 35 27 20 22 24 21 19 29 62 62 65 62 60 59 59 56 53 44 40 37 32 24 14 19 21 27 23 20 18 20 22 30 31 34 36 40 41 37 31 22 20
Wind_Direction_850mb
318 325 327 323 320 288 246 241 249 251 237 224 223 229 228 241 267 251 252 261 262 261 263 267 273 278 281 281 275 265 260 261 253 256 262 263 256 250 256 260 265 278 279
321 321 321 318 311 314 282 253 243 241 236 233 226 231 239 239 239 245 253 259 258 260 262 267 270 277 276 274 268 258 254 253 245 247 257 259 262 255 258 260 269 270 275
312 311 312 311 302 300 300 288 254 246 233 229 232 236 242 242 237 241 249 251 248 255 263 269 272 268 266 265 265 257 252 249 243 242 234 228 240 256 262 267 270 265 262
306 307 307 303 297 290 292 299 271 254 238 238 240 245 245 238 240 242 246 247 253 259 265 266 265 256 257 262 257 250 247 242 240 238 240 246 253 265 259 263 271 279 271
304 303 302 302 298 293 288 292 293 260 234 244 240 244 239 238 240 242 244 248 255 259 263 262 259 250 254 255 247 242 243 234 234 236 243 245 247 249 257 273 283 284 274
310 306 301 300 295 291 286 282 283 275 247 244 239 237 239 239 240 238 241 245 254 259 265 260 251 246 250 247 244 245 232 227 230 236 247 252 248 253 250 260 273 280 272
311 309 308 307 298 292 286 277 280 277 248 246 246 242 235 237 238 235 238 249 253 260 262 255 244 241 249 244 242 219 221 222 228 241 242 242 249 247 251 258 261 267 267
314 313 313 310 302 292 287 276 274 276 251 246 241 232 228 231 233 238 245 253 257 263 263 253 241 240 242 242 207 216 220 218 226 242 241 239 243 253 254 257 258 255 257
323 317 313 309 306 293 279 271 269 265 247 242 229 220 220 230 236 245 254 255 252 254 251 242 235 235 241 219 207 214 210 218 223 232 233 237 247 250 249 246 254 254 261
317 311 309 306 315 312 294 265 259 248 239 231 230 222 226 233 245 246 250 252 245 245 237 230 228 232 231 207 209 209 206 216 221 230 236 245 248 247 243 245 247 253 256
320 318 311 294 326 332 332 289 253 241 236 231 231 230 230 239 240 245 251 249 238 236 227 226 226 224 223 200 209 205 211 216 228 234 237 238 244 238 239 235 243 248 244
335 333 322 283 310 330 340 360 308 248 240 233 232 230 237 232 238 238 238 234 227 228 226 218 222 215 201 206 206 204 211 223 232 226 226 235 232 234 233 234 249 236 236
335 326 339 311 312 341 348 347 342 278 232 226 225 222 218 223 225 227 226 220 222 229 215 211 214 198 200 200 202 203 219 230 218 211 218 223 234 236 232 239 244 234 230
335 319 330 333 345 347 336 334 324 279 224 218 209 211 212 214 222 221 214 216 224 214 204 204 193 193 199 197 198 211 214 217 212 215 224 237 244 238 239 245 245 239 229
327 325 327 350 10 346 344 336 319 277 229 219 216 217 212 215 213 214 215 217 206 201 198 183 183 192 190 195 204 192 213 224 211 215 231 247 245 242 240 237 244 243 225
323 323 334 353 353 338 341 338 328 264 241 224 216 213 203 204 208 207 194 200 193 191 184 179 180 179 184 188 185 191 199 202 217 229 244 250 242 246 242 240 248 239 227
331 323 323 323 319 328 326 334 336 282 230 227 206 200 203 209 197 195 194 188 185 179 177 172 174 180 182 181 188 208 218 231 235 245 249 244 241 241 247 255 223 229 216
325 317 312 315 322 341 345 342 334 294 198 207 220 218 212 198 189 184 188 178 175 171 169 172 177 183 190 190 202 213 218 228 232 240 237 238 241 250 246 221 224 202 203
314 309 310 312 318 329 332 322 324 287 242 226 229 220 205 183 168 166 167 170 168 170 173 177 186 186 184 200 210 215 223 230 233 230 232 240 236 221 211 201 200 194 199
313 314 315 311 313 329 329 325 310 266 234 227 219 215 187 174 161 167 164 165 169 174 182 185 184 186 199 202 209 223 227 220 218 224 230 223 213 220 207 205 204 205 199
312 314 309 306 309 330 337 320 299 259 232 230 205 197 176 164 176 165 167 171 170 173 178 180 184 193 199 209 223 214 203 202 215 219 216 215 212 214 199 200 208 207 194
302 304 300 300 314 334 340 308 307 256 204 275 183 179 165 170 166 166 165 171 174 177 180 186 191 195 205 207 195 188 187 192 210 216 214 209 204 199 188 182 178 189 205
300 305 301 307 318 333 343 288 267 220 219 249 171 160 165 166 168 165 164 174 181 183 186 191 198 199 201 190 186 184 181 193 207 209 194 196 196 184 178 175 178 187 185
300 299 303 307 321 330 339 311 237 220 252 167 153 158 164 165 168 170 176 180 182 189 192 194 196 198 194 190 190 189 190 196 211 188 183 186 176 169 168 169 171 173 187
299 300 304 299 307 347 325 267 214 257 173 160 161 163 166 173 173 179 182 187 193 200 196 196 201 201 187 183 181 186 194 195 181 187 169 162 164 163 170 173 173 176 179
295 298 294 293 304 317 301 232 237 186 170 169 170 171 174 176 178 183 184 187 190 189 190 189 193 170 169 173 172 175 175 171 181 178 169 166 163 167 176 177 178 183 178